1998-067MY

Last updated on Fri Aug 04 2017 00:15:03 GMT+0000 (Coordinated Universal Time)

1 42824U 98067MY 17215.21937738 .00007638 00000-0 11769-3 0 9997 2 42824 51.6391 163.7156 0007836 82.7168 277.4713 15.55232174 4170
UTC large
Height (km)
Speed (km/s)
/
Latitude / Longitude
Inclination (degrees)
Orbital Period (minutes)
Azimuth
Elevation
Range (km)
Doppler Factor

Next 0 passes for location: London (51.5072 / 0.1276)

Sorry there are no passes over London.